{"data":{"norad_id":60368,"epoch":"2026-09-21T20:16:03.363168Z","epoch_age_seconds":69416,"freshness":"FRESH","line1":"1 60368U 24138P   26264.84448337 -.00001812  00000+0 -42528-4 0  9990","line2":"2 60368  53.1611 117.5025 0001714  80.3789 279.7407 15.34373297120677","mean_motion":15.34373297,"eccentricity":0.0001714,"inclination_deg":53.1611,"raan_deg":117.5025,"arg_perigee_deg":80.3789,"mean_anomaly_deg":279.7407,"bstar":-4.2528e-5,"rev_number":12067,"period_min":93.84939133231,"perigee_km":461.61007468067,"apogee_km":463.9551419224,"semimajor_km":6840.9196083015,"source":"CELESTRAK","updated_at":"2026-09-22T09:00:49.226459Z"}}